星链-3388 (STARLINK-3388 )

导读

STARLINK-3388是美国太空探索技术公司(SpaceX)星链(Starlink)星座中的一颗低地球轨道卫星,于2022年1月19日发射升空,属于星链星座快速扩张阶段的组网卫星。作为全球规模最大低轨卫星互联网星座的组成部分,它主要为全球偏远、基础设施匮乏地区提供高速低延迟宽带互联网服务,助力星链实现全球无缝覆盖的通信目标。

Basic Information
目录编号:
51131
目录名称:
STARLINK-3388
国际标识:
2022-005AD
轨道中心:
EARTH
卫星名称:
星链-3388
卫星全名:
星链-3388 (STARLINK-3388 )
卫星状态:
在轨 (已飞行1696 天)
发射日期:
2022-01-19 UTC
国别 :
美国 (US)
星等 :
--
This satellite is enrolled in the Space Conjunction Data Service (SCDS) and the current flight risk assessment level is: No High Risk
Orbit Information
数据来源 国际轨道数据
星历时间: 2026-09-11T13:00:29+0800
10小时前
查看轨道信息
半长轴: 6848.859km
偏心率: 0.0001386
轨道倾角: 53.159°
近地点辐角 94.986°
升交点赤经 173.051°
平近点角 265.130°
近地点: 469.772km
远地点: 471.672km
周期: 94.013分钟
每日圈数: 15.317062
Detailed Information
固有亮度:
5
最大亮度:
2.5
卫星平台:
Starlink v1.5
覆盖范围:
全球
运营商:
太空探索技术公司
运营商所在国:
美国
制造商(研发单位):
太空探索技术公司
制造商所在国:
美国
使用方式:
暂无
Satellite Introduction
星链(Starlink)计划是由太空探索技术公司(SpaceX)提出的一个巨型低轨卫星互联网星座项目,计划在2019年至2024年间在太空搭建由约1.2万颗卫星组成的“星链”网络,其中1584颗将部署在地球上空550千米处的近地轨道,并从2020年开始工作。该卫星仍在工作。
2D Orbit Map
3D Orbit Map
Orbit Altitude Analysis Chart
Orbit Inclination Analysis Chart
Orbit Comprehensive Analysis Chart
View Comprehensive Chart
Conjunction Data List
Event ID Objects TCA Miss Dist (km) Collision Risk Probability Collision Risk Index (CRI) Action
CDM_260913-113505-113105-323121
2026-09-13T
11:35:56+0000
1.607 km
极远距离
5.25629E-6 低风险 0.49
CDM_260912-080904-704105-113121
2026-09-12T
08:09:32+0000
2.694 km
极远距离
1.51122E-6 低风险 0.39
CDM_260912-204005-113106-527321
2026-09-12T
20:40:10+0000
2.782 km
极远距离
1.428823E-6 低风险 0.38
CDM_260913-200805-113106-523921
2026-09-13T
20:08:50+0000
2.852 km
极远距离
1.373467E-6 低风险 0.38
CDM_260911-162105-113106-884821
2026-09-11T
16:21:14+0000
2.984 km
极远距离
1.179089E-6 低风险 0.36
Miss Distance Evolution Trend with All Objects
Collision Probability Evolution Trend with All Objects